This is the latest recevied weather packets stored in our database for station/object N2UGS-WX. If no packets are shown the sender has not sent any weather packets the latest 10 day(s).
| Time | Temp. | Humidity | Pressure | Rain* | Wind** | Luminosity | Snow |
|---|---|---|---|---|---|---|---|
| 1778173502 | 14.44° C | 42% | 1011.5 hPa | 0 mm | - | - | - |
| 1778172602 | 15° C | 41% | 1011.9 hPa | 0 mm | - | - | - |
| 1778171701 | 15° C | 45% | 1011.9 hPa | 0 mm | - | - | - |
| 1778170803 | 13.89° C | 42% | 1012.2 hPa | 0 mm | - | - | - |
| 1778169903 | 13.89° C | 46% | 1012.2 hPa | 0 mm | - | - | - |
| 1778169302 | 12.78° C | 45% | 1012.2 hPa | 0 mm | - | - | - |
| 1778168402 | 13.33° C | 46% | 1012.5 hPa | 0 mm | - | - | - |
| 1778167502 | 12.22° C | 49% | 1012.5 hPa | 0 mm | - | - | - |
| 1778166602 | 11.67° C | 47% | 1012.5 hPa | 0 mm | - | - | - |
| 1778165703 | 11.67° C | 53% | 1012.5 hPa | 0 mm | - | - | - |
| 1778165043 | 11.67° C | 54% | 1012.9 hPa | 0 mm | - | - | - |
| 1778164442 | 11.11° C | 56% | 1012.9 hPa | 0 mm | - | - | - |
| 1778163542 | 11.67° C | 57% | 1012.9 hPa | 0 mm | - | - | - |
| 1778162642 | 10.56° C | 57% | 1012.9 hPa | 0 mm | - | - | - |
| 1778161743 | 10.56° C | 63% | 1012.9 hPa | 0 mm | - | - | - |
| 1778161141 | 9.44° C | 67% | 1013.2 hPa | 0 mm | - | - | - |
| 1778160303 | 7.78° C | 67% | 1013.2 hPa | 0 mm | - | - | - |
| 1778159642 | 6.67° C | 75% | 1013.2 hPa | 0 mm | - | - | - |
| 1778158802 | 5° C | 90% | 1013.2 hPa | 0 mm | - | - | - |
| 1778157902 | 5° C | 97% | 1013.5 hPa | 0 mm | - | - | - |
| 1778157002 | 4.44° C | 99% | 1013.2 hPa | 0 mm | - | - | - |
| 1778156043 | 5° C | 99% | 1013.2 hPa | 0 mm | - | - | - |
| 1778155142 | 5° C | 99% | 1013.5 hPa | 0 mm | - | - | - |
| 1778154242 | 4.44° C | 99% | 1013.5 hPa | 0 mm | - | - | - |
| 1778153342 | 4.44° C | 99% | 1013.5 hPa | 0 mm | - | - | - |
* Rain latest hour (hover to see other rain measurements)
** Current wind speed in m/s (hover to see current wind gust speed)